Location: Newark
(52.8300°N, 8.0000°E)
Time: 12:55:35
(UTC+00:00)

STARLINK-1090 - Pass Details

Date: 01 February 2020
Orbit: 349 x 351 km, 53.0° (Epoch: 21 February)

Event Time Altitude Azimuth Distance (km) Brightness Sun altitude
Rises 17:19:17 0° 283° (WNW) 2,178 7.9 -10.3°
Reaches altitude 10° 17:21:33 10° 267° (W) 1,331 7.1 -10.6°
Maximum altitude 17:23:57 22° 213° (SSW) 828 5.2 -11.0°
Drops below altitude 10° 17:26:21 10° 159° (SSE) 1,325 5.5 -11.3°
Enters shadow 17:28:40 - 143° (SE) 2,197 6.5 -11.7°
